格洛纳斯-739 COSMOS 1946 [GLONASS]

导读

COSMOS 1946(又名GLONASS)是由苏联(CIS)于1988年5月21日发射的导航卫星,属于俄罗斯GLONASS全球卫星导航系统的早期组网卫星。该卫星运行于约19100公里的中地球轨道,为系统提供全球全天候定位、导航与授时服务,是GLONASS系统建设历程中的重要组成部分,助力该系统成为全球四大卫星导航系统之一。

基本信息
目录编号:
19163
目录名称:
COSMOS 1946 (GLONASS)
国际标识:
1988-043A
轨道中心:
EARTH
卫星名称:
格洛纳斯-739
卫星全名:
格洛纳斯-739 COSMOS 1946 [GLONASS]
卫星状态:
在轨 (已飞行13901 天)
发射日期:
1988-05-21 UTC
国别 :
俄罗斯(独联体) (CIS)
星等 :
--
轨道信息
数据来源 国际轨道数据 AOE轨道数据
星历时间 2026-06-11T17:16:59+0800
1天前
查看轨道信息
2026-06-10T06:00:00+0800
2天前
查看轨道信息
半长轴 25507.953km 25507.929km
偏心率 0.0004436 0.0004519
轨道倾角 64.964° 64.963°
近地点辐角 79.117° 78.464°
升交点赤经 73.809° 73.859°
平近点角 87.021° 39.839°
近地点 19118.5km 19118.264km
远地点 19141.132km 19141.32km
周期 675.730分钟 675.729分钟
每日圈数 2.131029 2.131032
详细信息
平衡模式:
三轴稳定
覆盖范围:
全球
运营商:
列舍特涅夫卫星信息系统
运营商所在国:
俄罗斯
制造商(研发单位):
列舍特涅夫卫星信息系统
制造商所在国:
俄罗斯
使用方式:
暂无
卫星简介
格洛纳斯(GLONASS )是苏联/俄罗斯研制卫星导航系统。标准配置为24颗卫星,其中18颗卫星就能保证该系统为俄罗斯境内用户提供全部服务。该卫星已退役。
2D轨道图
3D轨道图
轨道高度分析图
轨道倾角分析图
轨道综合分析图
查看轨道综合分析图